Weather Roundup
Issued by NWS Springfield, MO

Home | Current Version | Previous Version | Text Only | Print | Product List | Glossary On
Versions: 1 2 3 4 5 6 7 8 9 10 11 12 13 14 15 16 17 18 19 20 21 22 23 24 25 26 27 28 29 30 31 32 33 34 35 36 37 38 39 40 41 42 43 44 45 46 47 48 49 50
000
NZUS99 KSGF 141557
HRRSGF

HOURLY WEATHER
NATIONAL WEATHER SERVICE SPRINGFIELD MO
1000 AM CST THU DEC 14 2017

......SGF CWA......

CITY           SKY/WX    TMP DP  RH WIND       PRES   REMARKS
SPRINGFIELD    CLOUDY    37  22  54 N14       30.07R WCI  28
JOPLIN         CLOUDY    36  30  79 CALM      30.12R
WEST PLAINS    CLOUDY    40  22  48 N15G21    30.07R WCI  32
ROLLA          CLOUDY    33  23  66 NW6       30.07R WCI  28
BRANSON        CLOUDY    37  23  56 N14       30.09R WCI  29

......SURROUNDING SGF CWA......

CITY           SKY/WX    TMP DP  RH WIND       PRES   REMARKS
CHANUTE        CLOUDY    38  29  70 N5        30.14R WCI  34
PARSONS        CLOUDY    37  29  72 N7        30.15R WCI  32
COFFEYVILLE    CLOUDY    39  29  67 NW8       30.15R WCI  33
EMPORIA        CLOUDY    37  26  64 NW12      30.12R WCI  29
HARRISON AR    CLOUDY    38  26  62 N8        30.09R WCI  32

......KANSAS AND MISSOURI......

CITY           SKY/WX    TMP DP  RH WIND       PRES   REMARKS
KANSAS CTY INT CLOUDY    37  25  61 NW7       30.10R WCI  32
SEDALIA        CLOUDY    34  24  67 N13       30.12R WCI  25
ST JOSEPH      CLOUDY    37  27  67 NW6       30.10S WCI  32
ST LOUIS       CLOUDY    30  19  63 NE12      30.10R WCI  20
WICHITA        MOSUNNY   40  27  59 N12       30.16R WCI  33
TOPEKA         CLOUDY    39  28  64 W6        30.12R WCI  35
OLATHE         CLOUDY    36  24  62 N6        30.10R WCI  31

......TENNESSEE......

CITY           SKY/WX    TMP DP  RH WIND       PRES   REMARKS
MEMPHIS        NOT AVBL
NASHVILLE      CLOUDY    40  28  62 N9        30.01R WCI  34

......ARKANSAS.......

CITY           SKY/WX    TMP DP  RH WIND       PRES   REMARKS
FAYETTEVILLE   CLOUDY    41  28  60 N9        30.08R
FT SMITH       SUNNY     49  29  46 NW9       30.10R
LITTLE ROCK    MOSUNNY   49  30  48 N12       30.08R

......OKLAHOMA.......

CITY           SKY/WX    TMP DP  RH WIND       PRES   REMARKS
TULSA          CLOUDY    41  28  60 N8        30.15R
PONCA CITY     CLOUDY    41  27  57 N10       30.16R
MCALESTER      MOSUNNY   49  31  49 N13       30.13R
OKLAHOMA CITY  PTSUNNY   44  27  51 N9        30.17R

......IOWA............

CITY           SKY/WX    TMP DP  RH WIND       PRES   REMARKS
DES MOINES     NOT AVBL
QUAD CITIES    PTSUNNY   24  13  62 E7        30.11R WCI  16

......ILLINOIS........

CITY           SKY/WX    TMP DP  RH WIND       PRES   REMARKS
QUINCY         NOT AVBL
CHICAGO        PTSUNNY   22   9  57 N10       30.07R WCI  11




USA.gov is the U.S. government's official web portal to all federal, state and local government web resources and services.